| time (UTC) | temp C | wind direction | speed KPH | gust KPH | rain 1hr cm | rain 24hr cm | rain mn cm | humidity % | barometer mb |
| 20260505025006 | 22 | 97 | 0.0 | 11.3 | 0.00 | 0.00 | 0.00 | 75 | 1015.4 |
| 20260505024515 | 22 | 177 | 1.6 | 11.3 | 0.00 | 0.00 | 0.00 | 74 | 1015.4 |
| 20260505024006 | 22 | 183 | 3.2 | 11.3 | 0.00 | 0.00 | 0.00 | 74 | 1015.3 |
| 20260505023504 | 22 | 229 | 4.8 | 11.3 | 0.00 | 0.00 | 0.00 | 74 | 1015.2 |
| 20260505023021 | 22 | 81 | 4.8 | 11.3 | 0.00 | 0.00 | 0.00 | 74 | 1015.1 |
| 20260505022507 | 22 | 179 | 3.2 | 17.7 | 0.00 | 0.00 | 0.00 | 73 | 1015.1 |
| 20260505022010 | 22 | 239 | 3.2 | 17.7 | 0.00 | 0.00 | 0.00 | 73 | 1015.1 |
| 20260505021522 | 22 | 174 | 4.8 | 16.1 | 0.00 | 0.00 | 0.00 | 73 | 1015.0 |
| 20260505021010 | 22 | 170 | 4.8 | 16.1 | 0.00 | 0.00 | 0.00 | 72 | 1014.9 |
| 20260505020509 | 23 | 138 | 3.2 | 14.5 | 0.00 | 0.00 | 0.00 | 72 | 1014.9 |
| 20260505020026 | 23 | 108 | 6.4 | 16.1 | 0.00 | 0.00 | 0.00 | 71 | 1014.9 |
| 20260505015504 | 23 | 166 | 8.0 | 16.1 | 0.00 | 0.00 | 0.00 | 71 | 1014.9 |
| 20260505015005 | 23 | 162 | 3.2 | 12.9 | 0.00 | 0.00 | 0.00 | 71 | 1014.9 |
| 20260505014516 | 23 | 166 | 4.8 | 12.9 | 0.00 | 0.00 | 0.00 | 71 | 1014.8 |
| 20260505014006 | 23 | 188 | 3.2 | 11.3 | 0.00 | 0.00 | 0.00 | 71 | 1014.8 |
| 20260505013506 | 23 | 116 | 4.8 | 11.3 | 0.00 | 0.00 | 0.00 | 71 | 1014.7 |
| 20260505013017 | 23 | 190 | 3.2 | 14.5 | 0.00 | 0.00 | 0.00 | 70 | 1014.7 |
| 20260505012505 | 23 | 210 | 4.8 | 14.5 | 0.00 | 0.00 | 0.00 | 70 | 1014.5 |
| 20260505012008 | 23 | 188 | 4.8 | 14.5 | 0.00 | 0.00 | 0.00 | 70 | 1014.5 |
| 20260505011523 | 23 | 135 | 3.2 | 16.1 | 0.00 | 0.00 | 0.00 | 69 | 1014.6 |
| 20260505011008 | 23 | 213 | 6.4 | 16.1 | 0.00 | 0.00 | 0.00 | 69 | 1014.5 |
| 20260505010508 | 24 | 204 | 4.8 | 12.9 | 0.00 | 0.00 | 0.00 | 69 | 1014.1 |
| 20260505010030 | 24 | 284 | 4.8 | 12.9 | 0.00 | 0.00 | 0.00 | 69 | 1014.1 |
| 20260505005508 | 24 | 127 | 3.2 | 16.1 | 0.00 | 0.00 | 0.00 | 68 | 1014.1 |
| 20260505005009 | 24 | 135 | 6.4 | 16.1 | 0.00 | 0.00 | 0.00 | 68 | 1014.0 |
| 20260505004508 | 24 | 179 | 3.2 | 14.5 | 0.00 | 0.00 | 0.00 | 67 | 1014.1 |
| 20260505004004 | 24 | 119 | 4.8 | 14.5 | 0.00 | 0.00 | 0.00 | 68 | 1014.1 |
| 20260505003504 | 25 | 130 | 3.2 | 14.5 | 0.00 | 0.00 | 0.00 | 67 | 1013.9 |
| 20260505003015 | 25 | 135 | 4.8 | 14.5 | 0.00 | 0.00 | 0.00 | 66 | 1013.9 |
| 20260505002504 | 25 | 168 | 6.4 | 12.9 | 0.00 | 0.00 | 0.00 | 66 | 1013.9 |
| 20260505002007 | 25 | 196 | 3.2 | 12.9 | 0.00 | 0.00 | 0.00 | 65 | 1013.9 |
| 20260505001520 | 25 | 144 | 4.8 | 12.9 | 0.00 | 0.00 | 0.00 | 65 | 1013.8 |
| 20260505001007 | 25 | 154 | 4.8 | 11.3 | 0.00 | 0.00 | 0.00 | 65 | 1013.6 |
| 20260505000504 | 25 | 208 | 3.2 | 12.9 | 0.00 | 0.00 | 0.00 | 64 | 1013.4 |
| 20260505000023 | 25 | 190 | 3.2 | 12.9 | 0.00 | 0.00 | 0.00 | 63 | 1013.3 |
| 20260504235510 | 25 | 182 | 4.8 | 11.3 | 0.00 | 0.00 | 0.00 | 63 | 1013.1 |
| 20260504235011 | 26 | 169 | 3.2 | 19.3 | 0.00 | 0.00 | 0.00 | 63 | 1013.0 |
| 20260504234528 | 26 | 192 | 4.8 | 19.3 | 0.00 | 0.00 | 0.00 | 62 | 1012.9 |
| 20260504234009 | 26 | 185 | 8.0 | 19.3 | 0.00 | 0.00 | 0.00 | 61 | 1013.0 |
| 20260504233505 | 26 | 177 | 6.4 | 19.3 | 0.00 | 0.00 | 0.00 | 62 | 1012.9 |
| 20260504233014 | 26 | 209 | 4.8 | 12.9 | 0.00 | 0.00 | 0.00 | 60 | 1012.7 |
| 20260504232505 | 26 | 156 | 6.4 | 16.1 | 0.00 | 0.00 | 0.00 | 60 | 1012.8 |
| 20260504232007 | 26 | 216 | 4.8 | 16.1 | 0.00 | 0.00 | 0.00 | 60 | 1012.8 |
| 20260504231520 | 26 | 156 | 4.8 | 12.9 | 0.00 | 0.00 | 0.00 | 59 | 1012.6 |
| 20260504231006 | 26 | 95 | 6.4 | 12.9 | 0.00 | 0.00 | 0.00 | 59 | 1012.6 |
| 20260504230508 | 26 | 102 | 4.8 | 12.9 | 0.00 | 0.00 | 0.00 | 61 | 1012.6 |
| 20260504230022 | 26 | 160 | 4.8 | 12.9 | 0.00 | 0.00 | 0.00 | 59 | 1012.6 |
| 20260504225510 | 26 | 73 | 4.8 | 12.9 | 0.00 | 0.00 | 0.00 | 58 | 1012.6 |
| 20260504225009 | 27 | 102 | 3.2 | 8.0 | 0.00 | 0.00 | 0.00 | 55 | 1012.5 |
| 20260504224531 | 27 | 118 | 3.2 | 14.5 | 0.00 | 0.00 | 0.00 | 55 | 1012.7 |
| 20260504224009 | 27 | 150 | 3.2 | 14.5 | 0.00 | 0.00 | 0.00 | 55 | 1012.7 |
| 20260504223511 | 27 | 206 | 3.2 | 14.5 | 0.00 | 0.00 | 0.00 | 56 | 1012.8 |
| 20260504223030 | 27 | 177 | 4.8 | 14.5 | 0.00 | 0.00 | 0.00 | 55 | 1012.9 |
| 20260504222505 | 27 | 141 | 6.4 | 19.3 | 0.00 | 0.00 | 0.00 | 54 | 1013.0 |
| 20260504222006 | 27 | 214 | 8.0 | 19.3 | 0.00 | 0.00 | 0.00 | 54 | 1012.9 |
| 20260504221515 | 27 | 240 | 3.2 | 11.3 | 0.00 | 0.00 | 0.00 | 52 | 1012.9 |
| 20260504221005 | 27 | 116 | 3.2 | 11.3 | 0.00 | 0.00 | 0.00 | 51 | 1012.9 |
| 20260504220507 | 27 | 56 | 1.6 | 11.3 | 0.00 | 0.00 | 0.00 | 53 | 1012.9 |
| 20260504220022 | 27 | 223 | 3.2 | 9.7 | 0.00 | 0.00 | 0.00 | 52 | 1012.9 |
| 20260504215512 | 27 | 98 | 3.2 | 9.7 | 0.00 | 0.00 | 0.00 | 54 | 1013.0 |
| 20260504215010 | 27 | 78 | 1.6 | 6.4 | 0.00 | 0.00 | 0.00 | 54 | 1012.8 |
| 20260504214537 | 27 | 75 | 3.2 | 12.9 | 0.00 | 0.00 | 0.00 | 52 | 1012.7 |
| 20260504214014 | 28 | 146 | 6.4 | 17.7 | 0.00 | 0.00 | 0.00 | 51 | 1012.8 |
| 20260504213510 | 28 | 175 | 6.4 | 17.7 | 0.00 | 0.00 | 0.00 | 52 | 1012.9 |
| 20260504213028 | 28 | 156 | 4.8 | 9.7 | 0.00 | 0.00 | 0.00 | 52 | 1012.8 |
| 20260504212512 | 28 | 157 | 3.2 | 9.7 | 0.00 | 0.00 | 0.00 | 49 | 1012.8 |
| 20260504212013 | 28 | 121 | 4.8 | 9.7 | 0.00 | 0.00 | 0.00 | 49 | 1012.9 |
| 20260504211513 | 28 | 151 | 4.8 | 12.9 | 0.00 | 0.00 | 0.00 | 53 | 1013.1 |
| 20260504211006 | 28 | 145 | 4.8 | 12.9 | 0.00 | 0.00 | 0.00 | 50 | 1013.1 |
| 20260504210512 | 28 | 136 | 6.4 | 11.3 | 0.00 | 0.00 | 0.00 | 53 | 1013.0 |
| 20260504210022 | 28 | 60 | 4.8 | 12.9 | 0.00 | 0.00 | 0.00 | 51 | 1013.0 |
| 20260504205507 | 28 | 154 | 3.2 | 12.9 | 0.00 | 0.00 | 0.00 | 52 | 1013.1 |
| 20260504205007 | 28 | 221 | 3.2 | 12.9 | 0.00 | 0.00 | 0.00 | 50 | 1012.9 |
| 20260504204522 | 28 | 146 | 3.2 | 14.5 | 0.00 | 0.00 | 0.00 | 51 | 1013.1 |
| 20260504204010 | 28 | 201 | 4.8 | 14.5 | 0.00 | 0.00 | 0.00 | 51 | 1013.1 |
| 20260504203509 | 28 | 181 | 8.0 | 17.7 | 0.00 | 0.00 | 0.00 | 51 | 1013.2 |
| 20260504203030 | 28 | 161 | 4.8 | 17.7 | 0.00 | 0.00 | 0.00 | 51 | 1013.2 |
| 20260504202508 | 28 | 168 | 3.2 | 12.9 | 0.00 | 0.00 | 0.00 | 48 | 1013.2 |
| 20260504202013 | 28 | 154 | 3.2 | 12.9 | 0.00 | 0.00 | 0.00 | 47 | 1013.2 |
| 20260504201526 | 29 | 110 | 4.8 | 14.5 | 0.00 | 0.00 | 0.00 | 46 | 1013.3 |
| 20260504201013 | 29 | 168 | 4.8 | 12.9 | 0.00 | 0.00 | 0.00 | 46 | 1013.4 |
| 20260504200507 | 29 | 111 | 4.8 | 14.5 | 0.00 | 0.00 | 0.00 | 48 | 1013.4 |
| 20260504200020 | 28 | 262 | 6.4 | 14.5 | 0.00 | 0.00 | 0.00 | 47 | 1013.4 |
| 20260504195507 | 28 | 126 | 1.6 | 11.3 | 0.00 | 0.00 | 0.00 | 46 | 1013.6 |
| 20260504195007 | 28 | 138 | 3.2 | 12.9 | 0.00 | 0.00 | 0.00 | 47 | 1013.6 |
| 20260504194523 | 28 | 178 | 6.4 | 12.9 | 0.00 | 0.00 | 0.00 | 49 | 1013.6 |
| 20260504194010 | 28 | 215 | 4.8 | 12.9 | 0.00 | 0.00 | 0.00 | 49 | 1013.7 |
| 20260504193514 | 28 | 167 | 6.4 | 16.1 | 0.00 | 0.00 | 0.00 | 50 | 1013.9 |
| 20260504193026 | 28 | 123 | 4.8 | 16.1 | 0.00 | 0.00 | 0.00 | 50 | 1013.9 |
| 20260504192514 | 28 | 174 | 6.4 | 16.1 | 0.00 | 0.00 | 0.00 | 49 | 1013.8 |
| 20260504192010 | 28 | 189 | 4.8 | 16.1 | 0.00 | 0.00 | 0.00 | 49 | 1013.8 |
| 20260504191526 | 29 | 164 | 6.4 | 14.5 | 0.00 | 0.00 | 0.00 | 51 | 1014.0 |
| 20260504191013 | 28 | 111 | 3.2 | 16.1 | 0.00 | 0.00 | 0.00 | 51 | 1014.0 |
| 20260504190511 | 28 | 197 | 6.4 | 16.1 | 0.00 | 0.00 | 0.00 | 51 | 1014.1 |
| 20260504190028 | 28 | 114 | 3.2 | 11.3 | 0.00 | 0.00 | 0.00 | 52 | 1014.2 |
| 20260504185510 | 28 | 134 | 3.2 | 19.3 | 0.00 | 0.00 | 0.00 | 49 | 1014.4 |
| 20260504185005 | 28 | 123 | 8.0 | 20.9 | 0.00 | 0.00 | 0.00 | 50 | 1014.5 |
| 20260504184527 | 28 | 169 | 6.4 | 20.9 | 0.00 | 0.00 | 0.00 | 48 | 1014.4 |
| 20260504184009 | 28 | 145 | 6.4 | 12.9 | 0.00 | 0.00 | 0.00 | 49 | 1014.6 |
| 20260504183514 | 28 | 83 | 4.8 | 12.9 | 0.00 | 0.00 | 0.00 | 51 | 1014.7 |
| 20260504183031 | 28 | 112 | 3.2 | 14.5 | 0.00 | 0.00 | 0.00 | 50 | 1014.7 |
| 20260504182508 | 28 | 174 | 6.4 | 14.5 | 0.00 | 0.00 | 0.00 | 50 | 1014.8 |
| 20260504182009 | 28 | 218 | 3.2 | 16.1 | 0.00 | 0.00 | 0.00 | 57 | 1015.0 |
| 20260504181526 | 27 | 97 | 4.8 | 16.1 | 0.00 | 0.00 | 0.00 | 51 | 1015.2 |
| 20260504181010 | 28 | 100 | 3.2 | 14.5 | 0.00 | 0.00 | 0.00 | 51 | 1015.2 |
| 20260504180507 | 28 | 43 | 4.8 | 17.7 | 0.00 | 0.00 | 0.00 | 50 | 1015.2 |
| 20260504180027 | 27 | 84 | 11.3 | 17.7 | 0.00 | 0.00 | 0.00 | 50 | 1015.2 |
| 20260504175508 | 27 | 195 | 8.0 | 16.1 | 0.00 | 0.00 | 0.00 | 50 | 1015.2 |
| 20260504175011 | 28 | 88 | 8.0 | 16.1 | 0.00 | 0.00 | 0.00 | 51 | 1015.4 |
| 20260504174528 | 27 | 177 | 6.4 | 16.1 | 0.00 | 0.03 | 0.00 | 53 | 1015.4 |
| 20260504174010 | 27 | 118 | 8.0 | 19.3 | 0.00 | 0.03 | 0.00 | 51 | 1015.5 |
| 20260504173512 | 27 | 133 | 9.7 | 22.5 | 0.00 | 0.03 | 0.00 | 48 | 1015.5 |
| 20260504173021 | 27 | 170 | 6.4 | 22.5 | 0.00 | 0.03 | 0.00 | 51 | 1015.6 |
| 20260504172512 | 27 | 60 | 11.3 | 22.5 | 0.00 | 0.03 | 0.00 | 50 | 1015.6 |
| 20260504172011 | 27 | 108 | 6.4 | 16.1 | 0.00 | 0.03 | 0.00 | 50 | 1015.7 |
| 20260504171525 | 27 | 95 | 6.4 | 14.5 | 0.00 | 0.03 | 0.00 | 54 | 1015.7 |
| 20260504171014 | 27 | 182 | 6.4 | 19.3 | 0.00 | 0.03 | 0.00 | 54 | 1015.8 |
| 20260504170508 | 27 | 135 | 11.3 | 19.3 | 0.00 | 0.03 | 0.00 | 50 | 1015.8 |
| 20260504151007 | 25 | 174 | 8.0 | 16.1 | 0.00 | 0.05 | 0.00 | 58 | 1016.7 |
| 20260504150510 | 25 | 96 | 4.8 | 14.5 | 0.00 | 0.05 | 0.00 | 64 | 1016.6 |
| 20260504141013 | 24 | 66 | 6.4 | 19.3 | 0.00 | 0.05 | 0.00 | 66 | 1016.4 |
| 20260504140510 | 24 | 118 | 8.0 | 19.3 | 0.00 | 0.05 | 0.00 | 66 | 1016.4 |
| 20260504130507 | 23 | 122 | 8.0 | 17.7 | 0.00 | 0.08 | 0.00 | 69 | 1016.0 |
| 20260504110510 | 18 | 66 | 8.0 | 16.1 | 0.00 | 0.10 | 0.00 | 83 | 1015.5 |
| 20260504100505 | 18 | 100 | 6.4 | 9.7 | 0.00 | 0.13 | 0.00 | 85 | 1014.9 |
| 20260504081529 | 18 | 84 | 3.2 | 4.8 | 0.00 | 0.18 | 0.00 | 85 | 1014.9 |
| 20260504081009 | 18 | 87 | 1.6 | 6.4 | 0.00 | 0.18 | 0.00 | 85 | 1014.7 |
| 20260504080517 | 18 | 91 | 3.2 | 8.0 | 0.00 | 0.18 | 0.00 | 85 | 1014.7 |
| 20260504050503 | 20 | 89 | 3.2 | 8.0 | 0.00 | 0.64 | 0.00 | 82 | 1016.1 |
| 20260504050006 | 20 | 19 | 1.6 | 8.0 | 0.00 | 0.64 | 0.00 | 82 | 1016.0 |
| 20260504045503 | 20 | 79 | 3.2 | 6.4 | 0.00 | 0.64 | 0.00 | 82 | 1015.9 |
| 20260504045005 | 20 | 60 | 3.2 | 6.4 | 0.00 | 0.64 | 0.00 | 82 | 1016.1 |
| 20260504044510 | 20 | 103 | 3.2 | 6.4 | 0.00 | 0.64 | 0.00 | 82 | 1016.2 |
| 20260504044006 | 20 | 97 | 3.2 | 6.4 | 0.00 | 0.64 | 0.00 | 81 | 1016.2 |
| 20260504043504 | 20 | 73 | 3.2 | 6.4 | 0.00 | 0.64 | 0.00 | 81 | 1016.3 |
| 20260504043010 | 20 | 100 | 1.6 | 8.0 | 0.00 | 0.64 | 0.00 | 81 | 1016.3 |
| 20260504042504 | 20 | 99 | 3.2 | 8.0 | 0.00 | 0.64 | 0.00 | 80 | 1016.4 |
| 20260504042004 | 21 | 98 | 4.8 | 9.7 | 0.00 | 0.64 | 0.00 | 80 | 1016.5 |
| 20260504041508 | 21 | 84 | 3.2 | 9.7 | 0.00 | 0.64 | 0.00 | 80 | 1016.5 |
| 20260504041003 | 21 | 122 | 3.2 | 6.4 | 0.00 | 0.64 | 0.00 | 79 | 1016.5 |
| 20260504040503 | 21 | 98 | 3.2 | 6.4 | 0.00 | 0.64 | 0.00 | 79 | 1016.5 |
| 20260504040006 | 21 | 81 | 1.6 | 8.0 | 0.00 | 0.64 | 0.00 | 79 | 1016.6 |
| 20260504035503 | 21 | 117 | 3.2 | 8.0 | 0.00 | 0.64 | 0.64 | 79 | 1016.7 |
| 20260504035003 | 21 | 103 | 1.6 | 9.7 | 0.00 | 0.64 | 0.64 | 79 | 1016.7 |
| 20260504034510 | 21 | 123 | 3.2 | 9.7 | 0.00 | 0.64 | 0.64 | 79 | 1016.7 |
| 20260504034004 | 21 | 103 | 0.0 | 8.0 | 0.00 | 0.64 | 0.64 | 79 | 1016.6 |
| 20260504033504 | 21 | 94 | 4.8 | 11.3 | 0.00 | 0.64 | 0.64 | 78 | 1016.6 |
| 20260504033007 | 21 | 103 | 3.2 | 11.3 | 0.00 | 0.64 | 0.64 | 79 | 1016.6 |
| 20260504032504 | 21 | 112 | 3.2 | 9.7 | 0.00 | 0.64 | 0.64 | 78 | 1016.7 |
| 20260504032004 | 21 | 111 | 4.8 | 11.3 | 0.00 | 0.64 | 0.64 | 78 | 1016.6 |
| 20260504031511 | 21 | 108 | 3.2 | 11.3 | 0.00 | 0.64 | 0.64 | 79 | 1016.6 |
| 20260504031003 | 21 | 125 | 3.2 | 8.0 | 0.00 | 0.64 | 0.64 | 79 | 1016.5 |
| 20260504030504 | 21 | 90 | 1.6 | 8.0 | 0.00 | 0.64 | 0.64 | 79 | 1016.5 |
| 20260504030008 | 21 | 79 | 4.8 | 8.0 | 0.00 | 0.64 | 0.64 | 79 | 1016.5 |
| 20260504025504 | 21 | 70 | 1.6 | 6.4 | 0.00 | 0.64 | 0.64 | 79 | 1016.5 |